Flag for Greece Weather past 2 weeks in Thessaloniki, Greece

Now
54 °F

Drizzle. Mostly cloudy.


Feels Like: 49 °F
Forecast: 45 / 56 °F
Wind: 16 mph from North

Location: Thessaloniki Airport

Current Time: Oct 25, 2014 at 10:22:10 PM

Latest Report: Oct 25, 2014 at 9:50 PM


Visibility: N/A

Pressure: 30.01 "Hg

Humidity: 63%

Dew point: 41 °F

Location of ThessalonikiLocation

Historic Weather in Thessaloniki — Graph

°F

Thessaloniki temperature yesterday

Maximum temperature yesterday: 57 °F (at 4:20 PM)
Minimum temperature yesterday: 43 °F (at 2:20 AM)
Average temperature yesterday: 52 °F

Past Weeks' High & Low Weather Summary

 TemperatureHumidityPressure
High82 °F (Oct 17, 2:50 PM)94% (Oct 10, 11:50 PM)30.36 "Hg (Oct 10, 11:50 PM)
Low43 °F (Oct 24, 2:20 AM)35% (Oct 17, 3:50 PM)29.39 "Hg (Oct 23, 7:50 AM)
Average62 °F74%29.96 "Hg
* Reported Oct 10 8:20 PM — Oct 25 8:50 PM, Thessaloniki, Weather by CustomWeather, © 2014

Note: Actual official high and low records may vary slightly from our data, if they occured in-between our weather recording intervals... More about our weather records

Advertising

Thessaloniki weather history for previous 24 hours

 ConditionsComfort  
Time TempWeatherWind HumidityBarometerVisibility
8:50 PM
Oct 25
54 °FMostly cloudy.18 mph63%29.98 "HgN/A
8:20 PM54 °FMostly cloudy.16 mph63%29.98 "HgN/A
7:50 PM54 °FMostly cloudy.16 mph63%29.98 "HgN/A
7:20 PM54 °FMostly cloudy.17 mph63%29.95 "HgN/A
6:50 PM55 °FMostly cloudy.14 mph59%29.95 "HgN/A
6:20 PM55 °FMore clouds than sun.13 mph63%29.95 "HgN/A
5:50 PM55 °FPartly sunny.16 mph67%29.95 "HgN/A
5:20 PM55 °FLight rain. Mostly cloudy.14 mph63%29.92 "HgN/A
4:50 PM57 °FLight rain. Mostly cloudy.17 mph63%29.92 "HgN/A
4:20 PM55 °FLight rain. Mostly cloudy.17 mph67%29.92 "HgN/A
3:50 PM55 °FMostly cloudy.16 mph67%29.92 "HgN/A
3:20 PM55 °FLight rain. Mostly cloudy.16 mph63%29.89 "HgN/A
2:50 PM55 °FLight rain. Mostly cloudy.16 mph63%29.89 "HgN/A
2:20 PM55 °FBroken clouds.18 mph63%29.89 "HgN/A
1:50 PM55 °FLight rain. Broken clouds.18 mph63%29.89 "HgN/A
1:20 PM55 °FPartly sunny.18 mph67%29.89 "HgN/A
12:50 PM55 °FPartly sunny.18 mph63%29.89 "HgN/A
12:20 PM55 °FPartly sunny.18 mph67%29.86 "HgN/A
11:50 AM55 °FPartly sunny.23 mph67%29.86 "HgN/A
11:20 AM55 °FPartly sunny.16 mph67%29.83 "HgN/A
10:50 AM54 °FPartly sunny.18 mph72%29.83 "HgN/A
10:20 AM54 °FPartly sunny.20 mph72%29.83 "HgN/A
9:50 AM54 °FPartly sunny.18 mph72%29.80 "HgN/A
9:20 AM55 °FPartly sunny.15 mph67%29.80 "HgN/A
8:50 AM54 °FPartly sunny.16 mph72%29.77 "HgN/A
8:20 AM55 °FPassing clouds.20 mph67%29.77 "HgN/A
7:50 AM54 °FPassing clouds.18 mph72%29.74 "HgN/A
7:20 AM54 °FPassing clouds.16 mph77%29.74 "HgN/A
6:50 AM54 °FLight rain. Mostly cloudy.14 mph82%29.74 "HgN/A
6:20 AM55 °FLight rain. Mostly cloudy.16 mph77%29.71 "HgN/A
5:50 AM54 °FLight rain. Mostly cloudy.12 mph82%29.71 "HgN/A
5:20 AM54 °FLight rain. Mostly cloudy.10 mph82%29.71 "HgN/A
4:50 AM54 °FLight rain. Mostly cloudy.15 mph88%29.68 "HgN/A
4:20 AM54 °FLight rain. Mostly cloudy.12 mph88%29.68 "HgN/A
3:50 AM54 °FLight rain. Mostly cloudy.16 mph82%29.65 "HgN/A
3:20 AM54 °FThunderstorms. Partly cloudy.23 mph88%29.65 "Hg5 mi
2:50 AM54 °FRain. Partly cloudy.14 mph88%29.65 "Hg5 mi
1:50 AM54 °FThunderstorms. Partly cloudy.20 mph88%29.65 "Hg4 mi
1:20 AM54 °FThunderstorms. Partly cloudy.20 mph88%29.65 "Hg4 mi
12:50 AM54 °FThunderstorms. Partly cloudy.18 mph88%29.65 "Hg4 mi
12:20 AM54 °FThunderstorms. Partly cloudy.18 mph88%29.65 "Hg4 mi
11:50 PM
Oct 24
55 °FThunderstorms. Partly cloudy.20 mph82%29.65 "Hg4 mi
11:20 PM55 °FRain. Mostly cloudy.16 mph82%29.65 "Hg6 mi
10:50 PM55 °FThunderstorms. Mostly cloudy.12 mph77%29.65 "Hg5 mi
10:20 PM57 °FLight rain. Passing clouds.10 mph72%29.62 "HgN/A
Weather by CustomWeather, © 2014

See weather overviewHow to use our weather pages